Flag for U.S.A. Weather past 2 weeks in Sheboygan, Wisconsin, U.S.A.

Now
15 °F

Sunny.


Feels Like: 1 °F
Forecast: 8 / 15 °F
Wind: 13 mph from Northwest

Location: Sheboygan County Memorial Airport

Current Time: Mar 4, 2015 at 5:23:38 PM

Latest Report: Mar 4, 2015 at 3:53 PM


Visibility: 10 mi

Pressure: 30.17 "Hg

Humidity: 42%

Dew point: -4 °F

Location of SheboyganLocation

Historic Weather in Sheboygan — Graph

°F

Sheboygan temperature yesterday

Maximum temperature yesterday: 30 °F (at 11:53 AM)
Minimum temperature yesterday: 22 °F (at 1:00 AM)
Average temperature yesterday: 28 °F

Past Weeks' High & Low Weather Summary

 TemperatureHumidityPressure
High31 °F (Feb 24, 2:53 PM)93% (Mar 3, 10:53 AM)30.74 "Hg (Mar 3, 10:53 AM)
Low-11 °F (Feb 19, 5:53 AM)34% (Feb 24, 5:53 PM)29.55 "Hg (Feb 24, 2:53 PM)
Average11 °F62%30.22 "Hg
* Reported Feb 17 3:53 PM — Mar 4 3:53 PM, Sheboygan, Weather by CustomWeather, © 2015

Note: Actual official high and low records may vary slightly from our data, if they occured in-between our weather recording intervals... More about our weather records

Advertising

Sheboygan weather history for previous 24 hours

 ConditionsComfort  
Time TempWeatherWind HumidityBarometerVisibility
3:53 PM
Wed, Mar 4
15 °FSunny.13 mph42%30.17 "Hg10 mi
2:53 PM15 °FSunny.17 mph42%30.15 "Hg10 mi
1:53 PM15 °FSunny.15 mph44%30.13 "Hg10 mi
12:53 PM14 °FSunny.16 mph47%30.15 "Hg10 mi
11:53 AM13 °FSunny.18 mph51%30.14 "Hg10 mi
10:53 AM12 °FSunny.14 mph53%30.12 "Hg10 mi
9:53 AM10 °FSunny.14 mph55%30.10 "Hg10 mi
8:53 AM10 °FSunny.15 mph55%30.10 "Hg10 mi
7:53 AM10 °FSunny.16 mph58%30.06 "Hg10 mi
6:53 AM11 °FPassing clouds.14 mph64%30.04 "Hg10 mi
5:53 AM12 °FClear.14 mph64%30.01 "Hg10 mi
4:53 AM14 °FClear.13 mph67%29.98 "Hg10 mi
3:53 AM17 °FClear.14 mph62%29.93 "Hg10 mi
2:53 AM19 °FClear.13 mph59%29.91 "Hg10 mi
1:53 AM21 °FClear.12 mph57%29.88 "Hg10 mi
12:53 AM24 °FPassing clouds.12 mph62%29.85 "Hg10 mi
11:53 PM
Tue, Mar 3
28 °FOvercast.15 mph58%29.83 "Hg10 mi
10:53 PM29 °FMostly cloudy.9 mph69%29.81 "Hg10 mi
9:53 PM30 °FOvercast.13 mph66%29.79 "Hg10 mi
8:53 PM30 °FOvercast.12 mph69%29.78 "Hg10 mi
7:53 PM29 °FOvercast.10 mph72%29.75 "Hg10 mi
6:53 PM29 °FOvercast.10 mph69%29.71 "Hg10 mi
5:53 PM28 °FOvercast.15 mph72%29.68 "Hg10 mi
Weather by CustomWeather, © 2015

See weather overviewHow to use our weather pages